Location: T�bingen+AIT
(48.5342°N, 9.0700°E)
Time: 22:33:53
(UTC+01:00)

SPOT 5 - Pass Details

Date: 14 September 2017
Orbit: 624 x 815 km, 98.4° (Epoch: 19 November)

Event Time Altitude Azimuth Distance (km) Brightness Sun altitude
Exits shadow 21:35:10 25° 62° (ENE) 1,259 3.8 -19.2°
Drops below altitude 10° 21:38:41 10° 8° (N) 2,013 5.4 -19.7°
Sets 21:41:10 0° 356° (N) 2,935 6.5 -20.1°
